[[{"header":{"parameterUnit":"m.s-1","parameterCategory":1,"la1":30.2991,"la2":30.254,"lo1":-89.0895,"lo2":-89.0444,"dy":0.0017,"dx":0.0017,"nx":28,"ny":28,"refTime":"2023-11-15T03:00:00:Z","depth":0,"parameterNumber":2,"parameterNumberName":"U-component_of_WINDS"},"data":[0,0,0,0,0,0,0,0,0,0,0,0,0,0,0,0,0,0,0,0,0,0,0,0,0,0,0,0,0,0,0,0,0,0,0,0,0,0,0,0,0,0,0,0,0,0,0,0,0,0,0,0,0,0,0,0,0,0,-4.0903,-4.0905,0,-4.115,-4.1153,-4.1156,-4.1156,-4.1153,-4.115,-4.1147,-4.1407,-4.1416,-4.1426,0,0,0,0,0,0,0,0,0,0,0,0,0,-4.0437,-4.0445,-4.0902,-4.0906,-4.0909,-4.115,-4.1153,-4.1157,-4.1157,-4.1153,-4.1149,-4.1145,-4.1403,-4.1415,-4.1427,0,0,0,0,0,0,0,0,0,0,0,0,0,-4.0657,-4.0448,-4.0902,-4.0938,-4.0943,-4.1149,-4.1153,-4.1157,-4.1158,-4.1153,-4.1148,-4.1144,-4.1399,-4.1414,-4.1428,-4.1617,0,0,-4.1474,-4.148,0,0,0,0,0,0,0,0,-4.0645,-4.0674,-4.0929,-4.0936,-4.0942,-4.1117,-4.1084,-4.1312,-4.1159,-4.1077,-4.1147,-4.1141,-4.1315,-4.1336,-4.1393,-4.1629,-4.164,-4.1475,-4.1484,-4.1491,-4.1495,0,0,0,0,0,0,0,-4.0629,-4.0664,-4.1001,-4.0933,-4.0941,-4.0944,-4.097,-4.1127,-4.122,-4.1083,-4.1084,-4.1113,-4.1317,-4.1379,-4.1399,-4.1644,-4.1475,-4.1488,-4.1497,-4.1503,-4.205,-4.2055,0,0,0,0,0,0,-4.0606,-4.0651,-4.0993,-4.1008,-4.0778,-4.0956,-4.0985,-4.1066,-4.1218,-4.1236,-4.1117,-4.1112,-4.1356,-4.1382,-4.1409,-4.1642,-4.149,-4.1504,-4.1513,-4.2045,-4.2051,-4.2057,0,0,0,0,0,0,-4.0596,-4.0636,-4.0983,-4.083,-4.0874,-4.0969,-4.106,-4.1074,-4.1135,-4.1243,-4.126,-4.1163,-4.1353,-4.1388,-4.1565,-4.165,-4.1511,-4.1525,-4.2038,-4.2047,-4.2054,-4.2107,0,0,0,0,0,0,-4.0583,-4.0633,-4.0704,-4.0831,-4.0882,-4.1133,-4.1065,-4.1082,-4.116,-4.1156,-4.1291,-4.1308,-4.1352,-4.1543,-4.158,-4.1668,-4.1536,-4.2031,-4.2042,-4.2052,-4.2098,-4.2116,-4.2132,0,0,0,0,0,-4.0566,-4.0709,-4.0707,-4.0748,-4.0972,-4.1138,-4.1168,-4.1213,-4.1167,-4.124,-4.131,-4.1304,-4.1635,-4.1561,-4.1603,-4.1697,-4.2026,-4.2039,-4.2051,-4.2091,-4.2113,-4.2131,0,0,0,0,0,0,-4.059,-4.0726,-4.0726,-4.0914,-4.1014,-4.1138,-4.1231,-4.1235,-4.1352,-4.1343,-4.1397,-4.1427,-4.1605,-4.1669,-4.1584,-4.1889,-4.1825,-4.1846,-4.1841,-4.1863,-4.1879,-4.1861,-4.1549,0,0,0,0,0,-4.0617,-4.0739,-4.0852,-4.1007,-4.1057,-4.1136,-4.121,-4.1236,-4.1343,-4.1386,-4.1469,-4.1575,-4.1703,-4.1786,-4.1909,-4.2107,-4.2138,-4.2193,-4.2209,-4.2222,-4.2241,-4.2354,-4.238,-4.2099,-4.2099,-4.2099,0,0,-4.0675,-4.0764,-4.0838,-4.1014,-4.1095,-4.1222,-4.1172,-4.1307,-4.1403,-4.1407,-4.158,-4.1645,-4.1767,-4.1956,-4.2043,-4.2015,-4.2326,-4.2239,-4.2248,-4.226,-4.237,-4.2396,-4.242,-4.2108,-4.2106,-4.2105,0,0,-4.0845,-4.0924,-4.1063,-4.1145,-4.1268,-4.1319,-4.1353,-4.1477,-4.1519,-4.1693,-4.17,-4.1816,-4.2034,-4.2122,-4.2195,-4.24,-4.24,-4.2439,-4.2527,-4.2637,-4.2659,-4.2679,-4.2755,-4.2781,-4.2457,-4.2457,-4.2457,0,-4.0902,-4.1091,-4.1135,-4.1272,-4.1351,-4.1359,-4.1502,-4.158,-4.1738,-4.1794,-4.1758,-4.2034,-4.2117,-4.2328,-4.2378,-4.2436,-4.2479,-4.2425,-4.2651,-4.2672,-4.2692,-4.2765,-4.2793,-4.2461,-4.2461,-4.246,-4.246,0,-4.1157,-4.1288,-4.1387,-4.1537,-4.1627,-4.1767,-4.1834,-4.192,-4.1939,-4.1995,-4.2174,-4.2273,-4.2418,-4.247,-4.249,-4.2686,-4.2664,-4.264,-4.2577,-4.2722,-4.2792,-4.282,-4.2467,-4.2465,-4.2464,-4.2463,0,0,-4.135,-4.1523,-4.1559,-4.1629,-4.1765,-4.1869,-4.201,-4.215,-4.2225,-4.2334,-4.2456,-4.2641,-4.262,-4.2703,-4.2733,-4.2829,-4.2989,-4.2793,-4.2797,-4.2828,-4.3214,-4.3234,-4.3265,-4.2989,-4.2995,-4.2999,-4.3205,0,-4.1537,-4.1785,-4.1829,-4.2048,-4.2172,-4.2182,-4.2306,-4.2405,-4.2461,-4.2577,-4.264,-4.2772,-4.2732,-4.2783,-4.2877,-4.2949,-4.3068,-4.2935,-4.3107,-4.3112,-4.3078,-4.3301,-4.3322,-4.3511,-4.3232,-4.3237,-4.324,0,-4.1788,-4.1902,-4.2133,-4.2255,-4.2309,-4.2418,-4.2552,-4.2661,-4.2775,-4.2809,-4.2903,-4.2923,-4.3073,-4.3002,-4.3211,-4.312,-4.3193,-4.3239,-4.3248,-4.3268,-4.3186,-4.333,-4.3572,-4.3602,-4.3283,-4.328,-4.3277,0,-4.1909,-4.212,-4.2286,-4.2345,-4.2491,-4.2569,-4.2634,-4.2742,-4.2825,-4.2942,-4.2997,-4.3131,-4.3205,-4.331,-4.3367,-4.3309,-4.3574,-4.3506,-4.361,-4.3609,-4.3666,-4.3662,-4.3927,-4.3709,-4.3709,-4.3708,-4.3708,0,-4.2114,-4.2255,-4.2343,-4.2445,-4.2605,-4.2655,-4.2813,-4.2877,-4.2974,-4.3091,-4.3108,-4.3218,-4.3285,-4.3406,-4.3452,-4.3621,-4.3653,-4.3688,-4.3699,-4.3688,-4.3684,-4.3738,-4.3728,-4.3716,-4.3714,-4.3713,-4.3711,0,-4.2277,-4.234,-4.2523,-4.2646,-4.268,-4.2793,-4.29,-4.3002,-4.3058,-4.3206,-4.3244,-4.3334,-4.3477,-4.3544,-4.3721,-4.3752,-4.3945,-4.3946,-4.3906,-4.3911,-4.4012,-4.4002,-4.4322,-4.4368,-4.4117,-4.412,-4.4122,0,-4.2404,-4.2513,-4.2648,-4.2727,-4.2794,-4.2921,-4.3005,-4.306,-4.3147,-4.3286,-4.3372,-4.3515,-4.3633,-4.3862,-4.3945,-4.4082,-4.4088,-4.4191,-4.4109,-4.4095,-4.4093,-4.4087,-4.41,-4.4206,-4.4208,-4.421,-4.4212,0,-4.2626,-4.2652,-4.2771,-4.2904,-4.3003,-4.311,-4.3215,-4.3279,-4.3351,-4.3449,-4.3595,-4.3686,-4.3868,-4.4011,-4.4154,-4.4224,-4.4232,-4.4237,-4.4269,-4.426,-4.4234,-4.4252,-4.395,-4.423,-4.4228,-4.4227,-4.4226,-4.4225,-4.2777,-4.2875,-4.2986,-4.312,-4.3204,-4.3302,-4.3404,-4.3474,-4.3595,-4.3746,-4.3772,-4.3928,-4.4042,-4.4234,-4.4309,-4.4434,-4.4411,-4.4456,-4.4468,-4.4479,-4.4486,-4.4211,-4.446,-4.446,-4.446,-4.4459,-4.4459,0,-4.3001,-4.3073,-4.3195,-4.3341,-4.3448,-4.3443,-4.3559,-4.3649,-4.3786,-4.389,-4.4006,-4.4176,-4.4316,-4.4409,-4.4552,-4.4635,-4.4642,-4.4671,-4.4667,-4.4683,-4.4498,-4.4457,-4.4662,-4.4662,-4.4662,-4.4662,-4.4662,-4.4662,-4.313,-4.3298,-4.3338,-4.3548,-4.362,-4.3772,-4.3839,-4.3931,-4.4015,-4.4203,-4.4319,-4.4378,-4.448,-4.4631,-4.476,-4.4785,-4.4838,-4.4868,-4.4892,-4.4717,-4.4696,-4.4676,-4.4638,-4.4878,-4.4878,-4.5067,-4.5069,-4.507]},{"header":{"parameterUnit":"m.s-1","parameterCategory":1,"la1":30.2991,"la2":30.254,"lo1":-89.0895,"lo2":-89.0444,"dy":0.0017,"dx":0.0017,"nx":28,"ny":28,"refTime":"2023-11-15T03:00:00:Z","depth":0,"parameterNumber":3,"parameterNumberName":"V-component_of_WINDS"},"data":[0,0,0,0,0,0,0,0,0,0,0,0,0,0,0,0,0,0,0,0,0,0,0,0,0,0,0,0,0,0,0,0,0,0,0,0,0,0,0,0,0,0,0,0,0,0,0,0,0,0,0,0,0,0,0,0,0,0,-5.9999,-5.9999,0,-5.9938,-5.9938,-5.9937,-5.981,-5.9808,-5.9805,-5.9803,-5.9742,-5.9743,-5.9744,0,0,0,0,0,0,0,0,0,0,0,0,0,-6.0008,-6.0008,-6.0,-5.9999,-5.9998,-5.9939,-5.9938,-5.9937,-5.9811,-5.9807,-5.9804,-5.9801,-5.9742,-5.9743,-5.9744,0,0,0,0,0,0,0,0,0,0,0,0,0,-5.9981,-6.0008,-6.0,-5.9928,-5.9921,-5.9939,-5.9938,-5.9937,-5.9811,-5.9807,-5.9803,-5.98,-5.9742,-5.9743,-5.9744,-5.9828,0,0,-5.9747,-5.9748,0,0,0,0,0,0,0,0,-5.9983,-5.9981,-5.9939,-5.9933,-5.9925,-5.9878,-5.9918,-5.99,-5.9812,-5.9853,-5.9802,-5.9798,-5.9791,-5.9788,-5.9785,-5.9825,-5.9822,-5.9748,-5.9748,-5.9749,-5.9749,0,0,0,0,0,0,0,-5.9985,-5.9983,-5.9975,-5.9939,-5.993,-5.9899,-5.9891,-5.9914,-5.9844,-5.9849,-5.984,-5.9834,-5.9786,-5.9784,-5.9782,-5.9821,-5.9748,-5.9749,-5.9749,-5.975,-5.9926,-5.993,0,0,0,0,0,0,-5.9997,-5.9986,-5.9977,-5.9973,-5.9945,-5.9902,-5.9893,-5.9897,-5.9843,-5.9832,-5.9837,-5.9828,-5.9784,-5.9781,-5.978,-5.9873,-5.9749,-5.975,-5.9751,-5.9922,-5.9927,-5.9931,0,0,0,0,0,0,-5.9998,-5.9998,-5.998,-5.9977,-5.9972,-5.9906,-5.9911,-5.9898,-5.9895,-5.9835,-5.9822,-5.9848,-5.978,-5.9778,-5.9816,-5.9869,-5.975,-5.9751,-5.9917,-5.9923,-5.9929,-6.0062,0,0,0,0,0,0,-5.9999,-5.9999,-6.003,-5.9979,-5.9973,-6.0018,-5.9915,-5.9899,-5.9897,-5.9885,-5.9841,-5.983,-5.9777,-5.9815,-5.9817,-5.9869,-5.9752,-5.9912,-5.992,-5.9927,-6.0053,-6.0072,-6.0088,0,0,0,0,0,-5.9999,-6.007,-6.0032,-6.0032,-6.001,-6.0021,-6.0018,-5.9955,-5.9902,-5.9933,-5.9894,-5.9831,-5.9863,-5.982,-5.9822,-5.9874,-5.9909,-5.9918,-5.9926,-6.0045,-6.0068,-6.0088,0,0,0,0,0,0,-6.013,-6.0062,-6.0019,-6.0075,-6.0055,-5.9999,-6.0036,-5.9982,-5.9977,-5.9965,-5.9888,-5.9879,-5.9928,-5.9905,-5.9858,-5.9952,-5.9876,-5.9886,-5.9965,-5.9987,-6.0004,-6.0009,-5.9753,0,0,0,0,0,-6.0166,-6.018,-6.0119,-6.0175,-6.0167,-6.0104,-6.0106,-6.0059,-6.0035,-6.0026,-5.999,-5.9969,-5.9974,-5.9979,-5.998,-6.0048,-6.0037,-6.0085,-6.0103,-6.0118,-6.0127,-6.016,-6.0181,-5.9961,-5.996,-5.996,0,0,-6.0239,-6.0204,-6.0217,-6.0201,-6.0179,-6.0195,-6.0097,-6.0119,-6.013,-6.0029,-6.0063,-6.0036,-6.0007,-6.0061,-6.0082,-6.0043,-6.0185,-6.0129,-6.0142,-6.0143,-6.0172,-6.0193,-6.0211,-5.9967,-5.9966,-5.9965,0,0,-6.0381,-6.0356,-6.0399,-6.0379,-6.0347,-6.0305,-6.0315,-6.0268,-6.0245,-6.0278,-6.0202,-6.0214,-6.0225,-6.0208,-6.02,-6.0335,-6.0277,-6.0337,-6.0431,-6.0464,-6.0481,-6.0496,-6.0544,-6.0562,-6.0347,-6.0347,-6.0347,0,-6.0477,-6.0498,-6.0428,-6.0454,-6.0449,-6.0357,-6.04,-6.0384,-6.0356,-6.0354,-6.031,-6.032,-6.0295,-6.0342,-6.0375,-6.0372,-6.0382,-6.0342,-6.0484,-6.0499,-6.0512,-6.0556,-6.0574,-6.0355,-6.0354,-6.0353,-6.0352,0,-6.0617,-6.0632,-6.0671,-6.0644,-6.0643,-6.0678,-6.0613,-6.0621,-6.0574,-6.0536,-6.057,-6.0536,-6.0528,-6.0536,-6.0491,-6.0577,-6.0553,-6.0498,-6.042,-6.0541,-6.0581,-6.0598,-6.0365,-6.0363,-6.036,-6.0359,0,0,-6.084,-6.0773,-6.0789,-6.0775,-6.0733,-6.0744,-6.0774,-6.0765,-6.0773,-6.0756,-6.0779,-6.0789,-6.0738,-6.0729,-6.0681,-6.0711,-6.0818,-6.0651,-6.0649,-6.0683,-6.091,-6.0952,-6.0973,-6.078,-6.0783,-6.0785,-6.0912,0,-6.0973,-6.102,-6.0957,-6.1019,-6.1032,-6.0944,-6.0971,-6.0948,-6.0913,-6.0919,-6.0881,-6.0889,-6.082,-6.0814,-6.0839,-6.08,-6.0863,-6.079,-6.0801,-6.0802,-6.081,-6.0994,-6.1038,-6.116,-6.0928,-6.093,-6.0932,0,-6.1133,-6.1123,-6.1185,-6.1138,-6.1141,-6.1166,-6.1152,-6.1159,-6.1131,-6.1104,-6.1094,-6.1037,-6.1063,-6.0987,-6.1022,-6.0974,-6.0974,-6.0956,-6.0959,-6.0957,-6.0875,-6.0997,-6.1197,-6.1216,-6.0956,-6.0954,-6.0953,0,-6.129,-6.1291,-6.1328,-6.1319,-6.1265,-6.1284,-6.1263,-6.1231,-6.1229,-6.1218,-6.1216,-6.1208,-6.1204,-6.1199,-6.1141,-6.1092,-6.1183,-6.1103,-6.1161,-6.1162,-6.1184,-6.1184,-6.1387,-6.1185,-6.1185,-6.1185,-6.1184,0,-6.1444,-6.1486,-6.1397,-6.1421,-6.1464,-6.1392,-6.1437,-6.1407,-6.1379,-6.1394,-6.1318,-6.1335,-6.1256,-6.1264,-6.1219,-6.1254,-6.1253,-6.1231,-6.1219,-6.1238,-6.1241,-6.1237,-6.1228,-6.1189,-6.1188,-6.1187,-6.1186,0,-6.1627,-6.1569,-6.1604,-6.1549,-6.1536,-6.1571,-6.1524,-6.1543,-6.1503,-6.1523,-6.1524,-6.1461,-6.1466,-6.1407,-6.1401,-6.137,-6.1426,-6.1399,-6.1436,-6.1427,-6.1488,-6.1483,-6.1697,-6.1721,-6.1504,-6.1506,-6.1508,0,-6.1729,-6.1759,-6.1707,-6.1711,-6.1693,-6.1702,-6.1699,-6.1629,-6.163,-6.16,-6.1622,-6.1621,-6.1616,-6.1628,-6.1582,-6.1576,-6.1548,-6.1623,-6.1547,-6.1565,-6.1549,-6.1548,-6.155,-6.164,-6.1642,-6.1644,-6.1646,0,-6.1917,-6.1886,-6.1886,-6.1875,-6.1874,-6.1863,-6.1846,-6.1855,-6.1778,-6.1783,-6.1786,-6.1783,-6.1776,-6.1775,-6.176,-6.1738,-6.168,-6.167,-6.1683,-6.1704,-6.1724,-6.1713,-6.1479,-6.1666,-6.1664,-6.1663,-6.1662,-6.1661,-6.2062,-6.2083,-6.205,-6.2052,-6.2032,-6.2018,-6.2032,-6.1993,-6.1995,-6.1983,-6.1942,-6.1953,-6.1922,-6.1897,-6.188,-6.1887,-6.185,-6.1869,-6.1874,-6.188,-6.1891,-6.1723,-6.1884,-6.1883,-6.1883,-6.1882,-6.1882,0,-6.2245,-6.2219,-6.2221,-6.22,-6.2201,-6.2145,-6.2123,-6.2128,-6.2138,-6.2115,-6.2111,-6.2115,-6.2114,-6.2067,-6.206,-6.2075,-6.2048,-6.2075,-6.2073,-6.2069,-6.1925,-6.1914,-6.2097,-6.2097,-6.2097,-6.2097,-6.2097,-6.2097,-6.2341,-6.2374,-6.234,-6.2363,-6.2336,-6.2346,-6.2338,-6.2325,-6.2305,-6.2313,-6.2311,-6.228,-6.2247,-6.2237,-6.2233,-6.2219,-6.222,-6.2257,-6.2234,-6.21,-6.2079,-6.206,-6.2049,-6.2258,-6.2258,-6.2378,-6.2379,-6.238]}]]